Location: Hiram
(41.3130°N, 81.1440°W)
Time: 14:26:46
(UTC-04:00)

Amateur Radio Satellites - All Passes

Search period start: 27 June 2016 13:56
Search period end: 28 June 2016 13:56
Location: Hiram, 41.3130°N, 81.1440°W

Satellite Date Start Highest point End Downlink Frequencies (MHz)
Time Altitude Azimuth
JAS-2 27 Jun 13:58:02 14:05:26 49° 261° (W) 14:12:18 435.910
YUBILEINY 27 Jun 14:00:08 14:08:51 87° 277° (W) 14:17:40 435.215
AISAT 27 Jun 14:05:02 14:08:47 28° 292° (WNW) 14:12:30 437.250
Cosmos 2504 27 Jun 14:06:15 14:13:16 34° 84° (E) 14:20:42 435.465 / 435.565
Oscar 19 27 Jun 14:06:19 14:11:29 83° 257° (WSW) 14:16:39 437.125/150
TISAT 1 27 Jun 14:06:27 14:10:15 32° 97° (E) 14:14:02 437.305
Gurwin Techsat 1B 27 Jun 14:12:19 14:17:24 49° 71° (ENE) 14:22:32 435.225
UKube-1 27 Jun 14:12:30 14:16:28 37° 290° (WNW) 14:20:26 .
Cosmos 2491 27 Jun 14:16:04 14:23:27 32° 276° (W) 14:30:49 435.465 / 435.565
SPROUT 27 Jun 14:16:36 14:20:41 45° 288° (WNW) 14:24:46 437.525
ISS 27 Jun 14:18:42 14:20:53 16° 13° (NNE) 14:23:03 145.825
ITAMSAT 1 27 Jun 14:26:55 14:31:07 26° 65° (ENE) 14:35:21 435.822/435.867
DX 1 27 Jun 14:30:24 14:33:37 21° 294° (WNW) 14:36:50 434.975-435.025
RS-15 27 Jun 14:31:32 14:42:38 50° 316° (NW) 14:54:22 29.354- 29.394
O/OREOS (USA 219) 27 Jun 15:13:56 15:14:29 10° 263° (W) 15:15:02 437.305
AIST 2 27 Jun 15:19:43 15:23:47 54° 242° (WSW) 15:27:50 435.215
SWISSCUBE 27 Jun 15:30:26 15:35:09 54° 100° (E) 15:39:49 437.505
SO-50 27 Jun 15:33:13 15:35:08 12° 107° (ESE) 15:37:03 436.795
TISAT 1 27 Jun 15:42:31 15:45:43 21° 293° (WNW) 15:48:54 437.305
AO-7 27 Jun 15:44:09 15:52:21 65° 67° (ENE) 16:00:36 29.400- 29.500
Gurwin Techsat 1B 27 Jun 15:53:41 15:57:37 21° 267° (W) 16:01:34 435.225
ISS 27 Jun 15:54:41 15:57:53 52° 31° (NNE) 16:01:05 145.825
BEESAT 27 Jun 15:55:49 16:00:39 88° 104° (ESE) 16:05:26 436.000
ITUPSAT 1 27 Jun 15:55:59 16:00:49 87° 101° (E) 16:05:37 437.325
Cosmos 2504 27 Jun 15:58:26 16:06:14 52° 285° (WNW) 16:14:39 435.465 / 435.565
YUBILEINY 27 Jun 16:01:20 16:07:01 19° 299° (WNW) 16:12:45 435.215
ITAMSAT 1 27 Jun 16:05:28 16:10:21 41° 261° (W) 16:15:17 435.822/435.867
MOZHAYETS 4 27 Jun 16:46:26 16:50:40 34° 96° (E) 16:54:51
RS-15 27 Jun 16:49:56 16:59:04 24° 348° (NNW) 17:08:30 29.354- 29.394
KKS-1 27 Jun 17:05:05 17:09:29 57° 101° (E) 17:13:51 437.445
SWISSCUBE 27 Jun 17:09:23 17:12:30 17° 297° (WNW) 17:15:36 437.505
SO-50 27 Jun 17:10:03 17:14:57 82° 302° (WNW) 17:19:51 436.795
BRITE-PL 27 Jun 17:21:05 17:23:50 15° 64° (ENE) 17:26:30 437.365/2234.400
AIST 1 27 Jun 17:23:33 17:27:18 30° 90° (E) 17:31:04
HORYU 2 27 Jun 17:28:22 17:32:47 90° 280° (W) 17:37:15 437.375
NOAA 15 27 Jun 17:30:28 17:34:30 23° 63° (ENE) 17:38:32 137.62
ISS 27 Jun 17:31:47 17:34:04 18° 228° (SW) 17:36:20 145.825
BEESAT 27 Jun 17:36:20 17:37:41 11° 301° (WNW) 17:39:02 436.000
ITUPSAT 1 27 Jun 17:36:25 17:37:55 11° 301° (WNW) 17:39:26 437.325
AO-7 27 Jun 17:38:47 17:45:37 28° 265° (W) 17:52:33 29.400- 29.500
STARS 27 Jun 17:40:35 17:44:59 71° 102° (ESE) 17:49:22 437.465
LilacSat-2 27 Jun 17:45:16 17:46:57 13° 65° (ENE) 17:48:38 437.200
NOAA 18 27 Jun 17:47:26 17:51:55 27° 64° (ENE) 17:56:27 137.9125
GOMX 1 27 Jun 18:00:59 18:03:37 15° 65° (ENE) 18:06:10 467.674
Cubesat XI-IV 27 Jun 18:02:31 18:07:09 31° 66° (ENE) 18:11:48 437.490
GONETS M04 27 Jun 18:03:51 18:10:25 25° 81° (E) 18:16:58
CUBESAT XI-V 27 Jun 18:10:48 18:14:53 30° 96° (E) 18:18:56 437.345
MOZHAYETS 4 27 Jun 18:23:54 18:27:39 25° 293° (WNW) 18:31:22
HO-68 27 Jun 18:28:51 18:31:29 12° 49° (NE) 18:34:08 435.675
CUTE-I 27 Jun 18:36:29 18:41:45 62° 72° (ENE) 18:47:03 437.470
KKS-1 27 Jun 18:43:09 18:45:34 15° 297° (WNW) 18:48:00 437.445
Cosmos 2499 27 Jun 18:46:10 18:53:06 31° 82° (E) 19:00:23 435.465 / 435.565
SO-50 27 Jun 18:53:23 18:56:11 15° 322° (NW) 18:58:59 436.795
BRITE-PL 27 Jun 18:56:49 19:01:54 65° 259° (W) 19:06:38 437.365/2234.400
AIST 1 27 Jun 19:01:32 19:04:55 22° 287° (WNW) 19:08:18
CUSAT 1 27 Jun 19:02:26 19:05:59 35° 73° (ENE) 19:08:50 437.405
DOVE 4 27 Jun 19:05:43 19:09:31 30° 71° (ENE) 19:13:12 437.250
RS-15 27 Jun 19:07:04 19:17:13 29° 24° (NNE) 19:27:26 29.354- 29.394
NOAA 15 27 Jun 19:08:50 19:13:56 48° 260° (W) 19:19:03 137.62
DANDE 27 Jun 19:14:18 19:18:26 23° 65° (ENE) 19:21:44 436.750
LilacSat-2 27 Jun 19:17:13 19:20:50 46° 261° (W) 19:24:32 437.200
STARS 27 Jun 19:19:06 19:20:45 12° 299° (WNW) 19:22:25 437.465
NOAA 18 27 Jun 19:27:12 19:32:20 42° 261° (W) 19:37:33 137.9125
GOMX 1 27 Jun 19:36:47 19:41:22 53° 260° (W) 19:45:41 467.674
Cubesat XI-IV 27 Jun 19:42:17 19:47:07 34° 263° (W) 19:52:00 437.490
CANX-2 27 Jun 19:45:57 19:49:25 25° 68° (ENE) 19:52:55 2200.000
CUBESAT XI-V 27 Jun 19:48:18 19:52:09 26° 292° (WNW) 19:55:58 437.345
COMPASS 1 27 Jun 19:53:40 19:55:43 13° 64° (ENE) 19:57:48 437.405
GONETS M04 27 Jun 19:57:43 20:06:23 70° 280° (W) 20:15:05
CUTE 1.7 + AOD 2 27 Jun 20:05:42 20:09:34 34° 71° (ENE) 20:13:28 437.475
CINEMA 3 27 Jun 20:09:12 20:13:06 41° 72° (ENE) 20:17:02 145.822/145.860
HO-68 27 Jun 20:10:47 20:17:47 62° 69° (ENE) 20:24:50 435.675
SEEDS 27 Jun 20:11:56 20:15:35 29° 70° (ENE) 20:19:18 437.485
CUBEBUG 2 27 Jun 20:15:18 20:17:44 15° 64° (ENE) 20:20:11 437.445
CUTE-I 27 Jun 20:18:53 20:22:13 17° 269° (W) 20:25:34 437.470
Cosmos 2499 27 Jun 20:37:31 20:45:38 58° 283° (WNW) 20:54:19 435.465 / 435.565
STRAND 1 27 Jun 20:41:34 20:46:44 72° 102° (ESE) 20:51:52 437.568
DOVE 4 27 Jun 20:43:52 20:47:15 22° 265° (W) 20:50:33 437.250
ZACube-1 27 Jun 20:46:17 20:48:44 15° 64° (ENE) 20:51:14 437.345
AUBIESAT-1 27 Jun 20:46:32 20:49:18 25° 65° (ENE) 20:52:05 437.475
AAUSAT CUBESAT 2 27 Jun 20:53:43 20:57:44 47° 73° (ENE) 21:01:48 437.432
DANDE 27 Jun 20:57:05 21:01:17 27° 274° (W) 21:04:35 436.750
Oscar 11 27 Jun 20:57:17 21:00:37 22° 67° (ENE) 21:03:59 145.826/435.025
UWE-3 27 Jun 21:03:22 21:07:08 34° 70° (ENE) 21:10:59 435.000/436.395/437.385
FUNcube-1 27 Jun 21:03:33 21:06:46 22° 67° (ENE) 21:10:03 145.935
AO-85 27 Jun 21:03:40 21:05:56 13° 106° (ESE) 21:08:12 145.980
DELFI C3 27 Jun 21:16:03 21:18:22 15° 65° (ENE) 21:20:43 145.870
RS-15 27 Jun 21:20:13 21:32:34 69° 53° (NE) 21:44:47 29.354- 29.394
CANX-2 27 Jun 21:21:26 21:25:09 29° 264° (W) 21:28:55 2200.000
M-CUBED/EXP-1 PRIME 27 Jun 21:24:26 21:27:42 72° 253° (WSW) 21:30:58 437.505
COMPASS 1 27 Jun 21:26:41 21:30:49 56° 260° (W) 21:34:59 437.405
PRISM 27 Jun 21:41:59 21:45:55 46° 100° (E) 21:49:50 437.425
CUTE 1.7 + AOD 2 27 Jun 21:42:19 21:45:30 20° 267° (W) 21:48:42 437.475
SEEDS 27 Jun 21:47:51 21:51:17 24° 266° (W) 21:54:45 437.485
CINEMA 3 27 Jun 21:48:03 21:50:29 15° 268° (W) 21:52:56 145.822/145.860
CUBEBUG 2 27 Jun 21:49:58 21:53:57 46° 261° (W) 21:58:03 437.445
HO-68 27 Jun 22:00:15 22:05:55 25° 267° (W) 22:11:40 435.675
GONETS M04 27 Jun 22:00:58 22:05:02 14° 303° (WNW) 22:09:06
HUMSAT D 27 Jun 22:07:01 22:10:30 26° 69° (ENE) 22:14:02 437.325/437.525
ZACube-1 27 Jun 22:20:34 22:24:36 48° 261° (W) 22:28:46 437.345
AUBIESAT-1 27 Jun 22:21:44 22:23:51 16° 261° (W) 22:25:58 437.475
STRAND 1 27 Jun 22:22:25 22:25:17 15° 300° (WNW) 22:28:09 437.568
AAUSAT CUBESAT 2 27 Jun 22:31:13 22:33:29 14° 269° (W) 22:35:45 437.432
Oscar 11 27 Jun 22:32:39 22:36:33 33° 263° (W) 22:40:31 145.826/435.025
Cosmos 2499 27 Jun 22:38:22 22:41:01 12° 306° (NW) 22:43:42 435.465 / 435.565
FUNcube-1 27 Jun 22:39:05 22:42:50 32° 264° (W) 22:46:40 145.935
AO-85 27 Jun 22:40:19 22:45:45 89° 134° (SE) 22:51:02 145.980
UWE-3 27 Jun 22:40:39 22:43:42 19° 267° (W) 22:46:48 435.000/436.395/437.385
DELFI C3 27 Jun 22:49:00 22:52:51 44° 261° (W) 22:56:45 145.870
ANTELSAT 27 Jun 22:52:43 22:56:14 21° 93° (E) 22:59:46 437.575/2403.000
ESTCUBE 1 27 Jun 23:17:44 23:21:41 30° 69° (ENE) 23:25:40 437.505/2401.250
PRISM 27 Jun 23:18:31 23:20:51 15° 296° (WNW) 23:23:09 437.425
AISAT 27 Jun 23:26:12 23:29:46 25° 67° (ENE) 23:33:19 437.250
Cosmos 2491 27 Jun 23:31:53 23:32:57 10° 72° (ENE) 23:34:02 435.465 / 435.565
UKube-1 27 Jun 23:32:13 23:35:03 17° 64° (ENE) 23:37:54 .
RS-15 27 Jun 23:33:33 23:44:18 37° 255° (WSW) 23:54:56 29.354- 29.394
SPROUT 27 Jun 23:36:39 23:38:29 13° 63° (ENE) 23:40:19 437.525
HUMSAT D 27 Jun 23:42:35 23:46:04 25° 265° (W) 23:49:35 437.325/437.525
TIGRISAT 27 Jun 23:43:47 23:48:25 68° 102° (ESE) 23:53:05 435.000
50 SAT 27 Jun 23:43:50 23:47:12 34° 72° (ENE) 23:50:37 437.505
UNISAT 6 27 Jun 23:48:35 23:53:15 81° 103° (ESE) 23:57:57 437.425
DX 1 27 Jun 23:49:11 23:53:02 32° 69° (ENE) 23:56:53 434.975-435.025
Cosmos 2504 28 Jun 00:00:06 00:03:57 13° 56° (NE) 00:07:44 435.465 / 435.565
SO-50 28 Jun 00:02:34 00:05:15 15° 37° (NE) 00:07:53 436.795
YUBILEINY 28 Jun 00:10:25 00:18:53 47° 75° (ENE) 00:27:18 435.215
NANOSAT C BR1 28 Jun 00:13:47 00:17:10 23° 95° (E) 00:20:33 145.865
CUBEBUG 1 28 Jun 00:15:09 00:19:30 84° 77° (ENE) 00:23:52 437.445
QB50P1 28 Jun 00:16:06 00:19:40 25° 96° (E) 00:23:13 145.935-145.965
POPSAT HIP 1 28 Jun 00:19:10 00:22:49 27° 96° (E) 00:26:27 437.405
VELOX 1 28 Jun 00:20:47 00:25:12 89° 46° (NE) 00:29:38 145.980
AO-85 28 Jun 00:23:18 00:26:55 18° 320° (NW) 00:30:26 145.980
ANTELSAT 28 Jun 00:28:43 00:33:03 40° 289° (WNW) 00:37:25 437.575/2403.000
QB50P2 28 Jun 00:30:59 00:35:00 39° 98° (E) 00:39:01 145.880/145.840
POLYITAN 1 28 Jun 00:33:35 00:37:38 40° 98° (E) 00:41:41 437.675
DUCHIFAT 1 28 Jun 00:34:23 00:38:18 36° 98° (E) 00:42:13 145.980
ESTCUBE 1 28 Jun 00:54:41 00:58:28 26° 265° (W) 01:02:16 437.505/2401.250
TISAT 1 28 Jun 00:58:23 01:01:47 25° 68° (ENE) 01:05:11 437.305
AISAT 28 Jun 01:02:13 01:06:07 30° 263° (W) 01:10:00 437.250
UKube-1 28 Jun 01:06:39 01:10:46 43° 261° (W) 01:14:53 .
JAS-2 28 Jun 01:09:21 01:13:36 22° 91° (E) 01:17:37 435.910
SPROUT 28 Jun 01:09:43 01:13:54 61° 259° (WSW) 01:18:08 437.525
50 SAT 28 Jun 01:18:47 01:21:00 15° 267° (W) 01:23:15 437.505
Cosmos 2491 28 Jun 01:19:17 01:27:53 63° 92° (E) 01:36:28 435.465 / 435.565
TIGRISAT 28 Jun 01:22:15 01:24:33 14° 298° (WNW) 01:26:51 435.000
DX 1 28 Jun 01:25:49 01:29:15 23° 265° (W) 01:32:41 434.975-435.025
UNISAT 6 28 Jun 01:27:43 01:29:19 12° 299° (WNW) 01:30:54 437.425
BEESAT 28 Jun 01:27:50 01:29:41 12° 60° (ENE) 01:31:31 436.000
ITUPSAT 1 28 Jun 01:28:19 01:30:09 12° 60° (ENE) 01:32:00 437.325
BUGSAT 1 28 Jun 01:33:45 01:37:51 78° 104° (ESE) 01:41:59 437.445
SO-50 28 Jun 01:41:46 01:46:27 88° 58° (ENE) 01:50:58 436.795
NANOSAT C BR1 28 Jun 01:49:11 01:52:54 30° 290° (WNW) 01:56:36 145.865
Cosmos 2504 28 Jun 01:50:31 01:59:22 64° 79° (ENE) 02:07:50 435.465 / 435.565
QB50P1 28 Jun 01:51:47 01:55:23 27° 291° (WNW) 01:58:59 145.935-145.965
POPSAT HIP 1 28 Jun 01:54:59 01:58:31 26° 292° (WNW) 02:02:02 437.405
PCSat 28 Jun 02:00:39 02:04:33 20° 106° (ESE) 02:08:27 145.827
YUBILEINY 28 Jun 02:07:34 02:15:27 39° 274° (W) 02:23:21 435.215
QB50P2 28 Jun 02:07:34 02:10:31 18° 294° (WNW) 02:13:28 145.880/145.840
POLYITAN 1 28 Jun 02:10:13 02:13:08 18° 295° (WNW) 02:16:04 437.675
DUCHIFAT 1 28 Jun 02:10:42 02:13:45 20° 294° (WNW) 02:16:49 145.980
Oscar 19 28 Jun 02:18:06 02:22:45 34° 97° (E) 02:27:22 437.125/150
BEESAT 3 28 Jun 02:28:30 02:30:42 15° 110° (ESE) 02:32:55 437.485
Gurwin Techsat 1B 28 Jun 02:29:20 02:33:06 19° 92° (E) 02:36:51 435.225
TISAT 1 28 Jun 02:33:48 02:37:20 27° 264° (W) 02:40:54 437.305
SWISSCUBE 28 Jun 02:36:40 02:41:23 63° 73° (ENE) 02:46:08 437.505
JAS-2 28 Jun 02:53:38 02:59:03 45° 291° (WNW) 03:04:02 435.910
BEESAT 28 Jun 03:02:00 03:06:46 81° 256° (WSW) 03:11:36 436.000
ITUPSAT 1 28 Jun 03:02:30 03:07:17 82° 254° (WSW) 03:12:09 437.325
BEESAT 2 28 Jun 03:04:02 03:06:56 20° 112° (ESE) 03:09:51 435.950
Cosmos 2491 28 Jun 03:18:00 03:25:18 29° 292° (WNW) 03:32:38 435.465 / 435.565
PCSat 28 Jun 03:42:10 03:47:29 56° 304° (WNW) 03:52:51 145.827
O/OREOS (USA 219) 28 Jun 03:43:20 03:47:50 86° 109° (ESE) 03:52:20 437.305
Cosmos 2504 28 Jun 03:44:53 03:52:02 29° 278° (W) 03:59:00 435.465 / 435.565
AO-7 28 Jun 03:47:12 03:52:56 20° 91° (E) 03:58:38 29.400- 29.500
MOZHAYETS 4 28 Jun 03:48:15 03:52:21 32° 69° (ENE) 03:56:29
Oscar 19 28 Jun 03:57:35 04:01:57 29° 293° (WNW) 04:06:19 437.125/150
KKS-1 28 Jun 04:02:57 04:07:14 52° 73° (ENE) 04:11:33 437.445
BEESAT 3 28 Jun 04:04:11 04:07:59 47° 306° (NW) 04:11:49 437.485
Gurwin Techsat 1B 28 Jun 04:08:10 04:13:21 53° 289° (WNW) 04:18:30 435.225
GONETS M04 28 Jun 04:14:56 04:17:31 11° 55° (NE) 04:20:05
SWISSCUBE 28 Jun 04:17:09 04:19:35 14° 269° (W) 04:22:02 437.505
ITAMSAT 1 28 Jun 04:17:48 04:23:03 70° 103° (ESE) 04:28:15 435.822/435.867
STARS 28 Jun 04:37:00 04:41:17 61° 73° (ENE) 04:45:36 437.465
Cosmos 2499 28 Jun 04:39:52 04:42:01 11° 53° (NE) 04:44:08 435.465 / 435.565
BEESAT 2 28 Jun 04:40:51 04:44:32 36° 309° (NW) 04:48:15 435.950
AIST 1 28 Jun 05:07:12 05:11:29 89° 82° (E) 05:15:44
CUBESAT XI-V 28 Jun 05:13:59 05:18:06 31° 69° (ENE) 05:22:12 437.345
AIST 2 28 Jun 05:17:23 05:20:56 29° 114° (ESE) 05:24:31 435.215
HORYU 2 28 Jun 05:20:17 05:23:16 17° 93° (E) 05:26:13 437.375
MOZHAYETS 4 28 Jun 05:25:44 05:29:32 25° 266° (W) 05:33:21
O/OREOS (USA 219) 28 Jun 05:26:28 05:27:52 11° 310° (NW) 05:29:18 437.305
PCSat 28 Jun 05:30:21 05:32:07 11° 324° (NW) 05:33:53 145.827
AO-85 28 Jun 05:34:05 05:36:05 13° 34° (NE) 05:38:01 145.980
AO-7 28 Jun 05:38:12 05:46:37 85° 290° (WNW) 05:54:59 29.400- 29.500
KKS-1 28 Jun 05:41:44 05:44:07 14° 268° (W) 05:46:31 437.445
ITAMSAT 1 28 Jun 05:58:49 06:01:55 16° 300° (WNW) 06:04:59 435.822/435.867
GONETS M04 28 Jun 06:07:50 06:16:28 60° 78° (ENE) 06:25:05
STARS 28 Jun 06:16:26 06:18:02 12° 270° (W) 06:19:38 437.465
STRAND 1 28 Jun 06:21:31 06:24:01 14° 59° (ENE) 06:26:32 437.568
Cubesat XI-IV 28 Jun 06:21:45 06:23:26 11° 88° (E) 06:25:08 437.490
Cosmos 2499 28 Jun 06:28:49 06:37:29 56° 77° (ENE) 06:45:36 435.465 / 435.565
LilacSat-2 28 Jun 06:51:10 06:53:52 18° 93° (E) 06:56:34 437.200
CUBESAT XI-V 28 Jun 06:51:28 06:55:27 27° 265° (W) 06:59:27 437.345
CUTE-I 28 Jun 06:54:06 06:58:28 25° 94° (E) 07:02:47 437.470
HORYU 2 28 Jun 06:55:44 07:00:01 45° 289° (WNW) 07:04:17 437.375
AIST 2 28 Jun 06:55:49 06:59:22 28° 311° (NW) 07:02:58 435.215
BRITE-PL 28 Jun 07:01:44 07:05:33 34° 97° (E) 07:09:23 437.365/2234.400
AO-85 28 Jun 07:12:55 07:17:28 75° 56° (ENE) 07:21:36 145.980
NOAA 15 28 Jun 07:23:40 07:28:54 63° 102° (ESE) 07:34:04 137.62
AO-7 28 Jun 07:32:30 07:38:13 21° 310° (NW) 07:43:57 29.400- 29.500
GOMX 1 28 Jun 07:38:03 07:42:00 39° 98° (E) 07:46:05 467.674
PHONESAT 2.4 28 Jun 07:38:56 07:41:29 24° 156° (SSE) 07:44:02 2401.200-2431.200
NOAA 18 28 Jun 07:48:40 07:54:15 81° 104° (ESE) 07:59:49 137.9125
STRAND 1 28 Jun 07:57:22 08:02:30 80° 257° (WSW) 08:07:42 437.568
Cubesat XI-IV 28 Jun 07:58:45 08:04:11 87° 283° (WNW) 08:09:33 437.490
CUSAT 1 28 Jun 08:00:23 08:08:05 62° 96° (E) 08:14:39 437.405
CINEMA 3 28 Jun 08:05:34 08:06:43 11° 90° (E) 08:07:52 145.822/145.860
GONETS M04 28 Jun 08:05:34 08:12:40 29° 277° (W) 08:19:48
DANDE 28 Jun 08:17:31 08:25:21 45° 91° (E) 08:32:44 436.750
Cosmos 2499 28 Jun 08:22:40 08:30:05 32° 277° (W) 08:37:10 435.465 / 435.565
LilacSat-2 28 Jun 08:24:46 08:28:14 32° 289° (WNW) 08:31:42 437.200
PRISM 28 Jun 08:31:19 08:35:05 34° 70° (ENE) 08:38:50 437.425
CUTE-I 28 Jun 08:33:35 08:38:39 43° 291° (WNW) 08:43:41 437.470
ISS 28 Jun 08:35:26 08:37:21 15° 131° (SE) 08:39:17 145.825
DOVE 4 28 Jun 08:40:40 08:45:00 88° 103° (ESE) 08:49:33 437.250
BRITE-PL 28 Jun 08:40:57 08:43:51 19° 294° (WNW) 08:46:44 437.365/2234.400
AO-85 28 Jun 08:56:57 08:57:05 10° 255° (WSW) 08:57:13 145.980
NOAA 15 28 Jun 09:04:46 09:08:09 18° 299° (WNW) 09:11:32 137.62
CANX-2 28 Jun 09:05:48 09:09:57 46° 99° (E) 09:14:03 2200.000
COMPASS 1 28 Jun 09:10:02 09:13:22 22° 94° (E) 09:16:38 437.405
PHONESAT 2.4 28 Jun 09:14:47 09:17:50 67° 173° (S) 09:20:53 2401.200-2431.200
GOMX 1 28 Jun 09:17:02 09:19:52 18° 293° (WNW) 09:22:45 467.674
HO-68 28 Jun 09:25:47 09:32:57 65° 103° (ESE) 09:40:04 435.675
CUTE 1.7 + AOD 2 28 Jun 09:25:49 09:30:06 69° 100° (E) 09:34:20 437.475
SEEDS 28 Jun 09:30:43 09:34:54 55° 100° (E) 09:39:02 437.485
NOAA 18 28 Jun 09:31:07 09:34:12 15° 302° (WNW) 09:37:17 137.9125
CINEMA 3 28 Jun 09:39:43 09:44:15 74° 285° (WNW) 09:48:59 145.822/145.860
CUBEBUG 2 28 Jun 09:40:11 09:44:25 35° 97° (E) 09:48:44 437.445
Cubesat XI-IV 28 Jun 09:41:16 09:43:25 12° 302° (WNW) 09:45:35 437.490
CUSAT 1 28 Jun 09:44:05 09:50:23 27° 289° (WNW) 09:55:55 437.405
ANTELSAT 28 Jun 09:52:17 09:55:11 18° 65° (ENE) 09:58:07 437.575/2403.000
AUBIESAT-1 28 Jun 09:58:16 10:01:26 23° 101° (ESE) 10:04:47 437.475
DANDE 28 Jun 10:00:19 10:08:12 43° 287° (WNW) 10:15:33 436.750
PRISM 28 Jun 10:07:25 10:10:27 19° 266° (W) 10:13:30 437.425
ZACube-1 28 Jun 10:08:37 10:12:42 32° 96° (E) 10:16:47 437.345
ISS 28 Jun 10:10:13 10:13:27 62° 327° (NNW) 10:16:42 145.825
AAUSAT CUBESAT 2 28 Jun 10:11:08 10:15:20 90° 209° (SSW) 10:19:28 437.432
Oscar 11 28 Jun 10:19:21 10:23:31 42° 98° (E) 10:27:38 145.826/435.025
FUNcube-1 28 Jun 10:26:13 10:30:36 46° 99° (E) 10:34:59 145.935
DELFI C3 28 Jun 10:27:03 10:30:11 22° 94° (E) 10:33:18 145.870
UWE-3 28 Jun 10:28:18 10:32:54 79° 101° (E) 10:37:33 435.000/436.395/437.385
M-CUBED/EXP-1 PRIME 28 Jun 10:36:37 10:40:30 78° 107° (ESE) 10:44:43 437.505
TIGRISAT 28 Jun 10:42:27 10:46:38 56° 74° (ENE) 10:50:56 435.000
CANX-2 28 Jun 10:42:47 10:45:25 16° 295° (WNW) 10:48:03 2200.000
BEESAT 3 28 Jun 10:45:15 10:46:56 12° 40° (NE) 10:48:36 437.485
COMPASS 1 28 Jun 10:45:16 10:48:55 30° 290° (WNW) 10:52:34 437.405
UNISAT 6 28 Jun 10:47:22 10:51:37 69° 75° (ENE) 10:56:01 437.425
PCSat 28 Jun 10:47:24 10:51:23 20° 44° (NE) 10:55:21 145.827
PHONESAT 2.4 28 Jun 10:51:20 10:54:24 68° 188° (S) 10:57:27 2401.200-2431.200
CUTE 1.7 + AOD 2 28 Jun 11:03:57 11:05:21 11° 298° (WNW) 11:06:44 437.475
NANOSAT C BR1 28 Jun 11:06:35 11:09:23 18° 65° (ENE) 11:12:11 145.865
SEEDS 28 Jun 11:08:01 11:10:07 14° 296° (WNW) 11:12:13 437.485
QB50P1 28 Jun 11:09:04 11:12:07 20° 66° (ENE) 11:15:10 145.935-145.965
POPSAT HIP 1 28 Jun 11:12:08 11:15:16 21° 67° (ENE) 11:18:26 437.405
HO-68 28 Jun 11:14:24 11:20:07 26° 301° (WNW) 11:25:49 435.675
CUBEBUG 2 28 Jun 11:17:11 11:20:51 24° 292° (WNW) 11:24:36 437.445
BEESAT 2 28 Jun 11:21:46 11:24:13 16° 43° (NE) 11:26:40 435.950
JAS-2 28 Jun 11:22:22 11:26:21 16° 57° (ENE) 11:30:09 435.910
QB50P2 28 Jun 11:23:45 11:27:24 30° 69° (ENE) 11:31:05 145.880/145.840
HUMSAT D 28 Jun 11:25:02 11:29:15 49° 99° (E) 11:33:24 437.325/437.525
POLYITAN 1 28 Jun 11:26:21 11:30:02 30° 69° (ENE) 11:33:43 437.675
DUCHIFAT 1 28 Jun 11:26:30 11:30:00 27° 69° (ENE) 11:33:31 145.980
ANTELSAT 28 Jun 11:27:28 11:31:33 42° 262° (W) 11:35:44 437.575/2403.000
Cosmos 2491 28 Jun 11:29:59 11:37:31 31° 69° (ENE) 11:44:58 435.465 / 435.565
AUBIESAT-1 28 Jun 11:32:28 11:35:54 30° 294° (WNW) 11:39:32 437.475
RS-15 28 Jun 11:44:03 11:54:18 42° 107° (ESE) 12:05:03 29.354- 29.394
ZACube-1 28 Jun 11:45:07 11:48:50 25° 292° (WNW) 11:52:34 437.345
ISS 28 Jun 11:48:08 11:50:24 17° 346° (NNW) 11:52:40 145.825
Oscar 11 28 Jun 11:56:22 11:59:18 18° 295° (WNW) 12:02:15 145.826/435.025
DELFI C3 28 Jun 12:01:37 12:05:02 27° 290° (WNW) 12:08:24 145.870
FUNcube-1 28 Jun 12:03:24 12:06:29 18° 295° (WNW) 12:09:36 145.935
CUBEBUG 1 28 Jun 12:05:01 12:07:32 15° 92° (E) 12:10:02 437.445
UWE-3 28 Jun 12:07:09 12:08:44 12° 298° (WNW) 12:10:18 435.000/436.395/437.385
VELOX 1 28 Jun 12:11:59 12:14:48 17° 93° (E) 12:17:36 145.980
O/OREOS (USA 219) 28 Jun 12:14:59 12:18:04 18° 55° (NE) 12:21:09 437.305
BEESAT 3 28 Jun 12:21:12 12:25:10 85° 239° (WSW) 12:29:07 437.485
TIGRISAT 28 Jun 12:21:53 12:23:44 12° 270° (W) 12:25:35 435.000
BUGSAT 1 28 Jun 12:23:22 12:27:16 51° 73° (ENE) 12:31:10 437.445
PHONESAT 2.4 28 Jun 12:28:10 12:30:45 24° 204° (SSW) 12:33:19 2401.200-2431.200
UNISAT 6 28 Jun 12:28:23 12:28:51 10° 271° (W) 12:29:19 437.425
PCSat 28 Jun 12:29:55 12:35:20 71° 243° (WSW) 12:40:42 145.827
NANOSAT C BR1 28 Jun 12:40:53 12:44:48 39° 262° (W) 12:48:45 145.865
QB50P1 28 Jun 12:43:49 12:47:39 35° 263° (W) 12:51:31 145.935-145.965
50 SAT 28 Jun 12:46:07 12:49:39 42° 99° (E) 12:53:08 437.505
ESTCUBE 1 28 Jun 12:46:10 12:50:39 65° 102° (ESE) 12:55:06 437.505/2401.250
POPSAT HIP 1 28 Jun 12:47:05 12:50:52 33° 263° (W) 12:54:39 437.405
AISAT 28 Jun 12:51:40 12:55:55 47° 100° (E) 13:00:09 437.250
UKube-1 28 Jun 12:53:46 12:57:32 28° 97° (E) 13:01:15 .
SPROUT 28 Jun 12:56:08 12:59:29 22° 94° (E) 13:02:50 437.525
BEESAT 2 28 Jun 12:58:29 13:02:26 61° 240° (WSW) 13:06:21 435.950
QB50P2 28 Jun 12:59:54 13:03:13 23° 265° (W) 13:06:34 145.880/145.840
HUMSAT D 28 Jun 13:01:51 13:04:27 16° 295° (WNW) 13:07:02 437.325/437.525
DUCHIFAT 1 28 Jun 13:02:13 13:05:39 25° 265° (W) 13:09:06 145.980
POLYITAN 1 28 Jun 13:02:34 13:05:50 22° 265° (W) 13:09:09 437.675
JAS-2 28 Jun 13:02:46 13:10:26 76° 74° (ENE) 13:17:26 435.910
YUBILEINY 28 Jun 13:11:08 13:19:30 54° 90° (E) 13:27:55 435.215
DX 1 28 Jun 13:12:44 13:17:01 59° 101° (E) 13:21:18 434.975-435.025
ISS 28 Jun 13:25:58 13:27:50 14° 6° (N) 13:29:41 145.825
Cosmos 2491 28 Jun 13:26:20 13:34:48 58° 269° (W) 13:43:15 435.465 / 435.565
Oscar 19 28 Jun 13:34:48 13:39:46 50° 71° (ENE) 13:44:44 437.125/150
AIST 2 28 Jun 13:38:30 13:41:49 22° 46° (NE) 13:45:07 435.215
CUBEBUG 1 28 Jun 13:39:56 13:44:05 47° 287° (WNW) 13:48:12 437.445
VELOX 1 28 Jun 13:47:18 13:51:29 44° 288° (WNW) 13:55:38 145.980
